This is the latest recevied weather packets stored in our database for station/object IW8XOI-10. If no packets are shown the sender has not sent any weather packets the latest 1 day(s).
| Time | Temp. | Humidity | Pressure | Rain* | Wind** | Luminosity | Snow |
|---|---|---|---|---|---|---|---|
| 1778093686 | 26.11° C | 44% | 1023.3 hPa | - | - | - | - |
| 1778090086 | 26.67° C | 44% | 1022.7 hPa | - | - | - | - |
| 1778086486 | 27.22° C | 45% | 1022.7 hPa | - | - | - | - |
| 1778082886 | 27.22° C | 45% | 1023.1 hPa | - | - | - | - |
| 1778079286 | 26.67° C | 45% | 1022.9 hPa | - | - | - | - |
| 1778061287 | 22.78° C | 48% | 1023.6 hPa | - | - | - | - |
| 1778057687 | 22.22° C | 47% | 1023.8 hPa | - | - | - | - |
| 1778054087 | 21.67° C | 48% | 1023.7 hPa | - | - | - | - |
| 1778050487 | 21.11° C | 48% | 1023.3 hPa | - | - | - | - |
| 1778046887 | 21.11° C | 47% | 1023.3 hPa | - | - | - | - |
| 1778043287 | 20° C | 48% | 1023.3 hPa | - | - | - | - |
| 1778039687 | 20° C | 48% | 1022.9 hPa | - | - | - | - |
| 1778036087 | 20° C | 48% | 1023.1 hPa | - | - | - | - |
| 1778032604 | 20.56° C | 48% | 1023.6 hPa | - | - | - | - |
| 1778032487 | 20.56° C | 48% | 1023.6 hPa | - | - | - | - |
| 1778028887 | 21.11° C | 47% | 1023.8 hPa | - | - | - | - |
| 1778021688 | 22.22° C | 47% | 1024.6 hPa | - | - | - | - |
| 1778018088 | 22.78° C | 47% | 1025.1 hPa | - | - | - | - |
| 1778014488 | 23.33° C | 46% | 1025.3 hPa | - | - | - | - |
| 1778010888 | 24.44° C | 45% | 1025.3 hPa | - | - | - | - |
* Rain since midnight (hover to see other rain measurements)
** Current wind speed in m/s (hover to see current wind gust speed)